Regional Weather Roundup
Issued by NWS

Home | Current Version | Previous Version | Graphics & Text | Print | Product List | Glossary On
Versions: 1 2 3 4 5 6 7 8 9 10 11 12 13 14 15 16 17 18 19 20 21 22 23 24 25 26 27 28 29 30 31 32 33 34 35 36 37 38 39 40 41 42 43 44 45 46 47 48 49 50
000
ASUS44 KMEG 310500
RWRTN
TENNESSEE HOURLY STATE WEATHER ROUNDUP
NATIONAL WEATHER SERVICE MEMPHIS TN
1200 AM CDT TUE MAY 31 2016

TNZ002-004-019-021-049-052-054-088>092-310600-
WEST TENNESSEE

CITY           SKY/WX    TMP DP  RH WIND       PRES   REMARKS
MEMPHIS INTL   CLOUDY    73  66  78 W10       29.97S
NWS MEMPHIS      N/A     74 N/A N/A MISG        N/A
JACKSON        CLOUDY    69  65  86 CALM      29.96F
DYERSBURG      PTCLDY    73  66  78 E5        29.96F
UNION CITY     CLEAR     70  70 100 CALM      29.95F
PARIS          CLEAR     64  61  88 CALM      29.98F
LEXINGTON      CLEAR     66  66 100 CALM      29.96F
$$

TNZ008-025-027-028-033-062-065-066-310600-
NORTH MIDDLE TENNESSEE

CITY           SKY/WX    TMP DP  RH WIND       PRES   REMARKS
NASHVILLE      PTCLDY    70  59  68 CALM      29.98F
CLARKSVILLE    CLEAR     67  62  84 CALM      29.97F
COOKEVILLE     CLEAR     61  61 100 CALM      30.00R
CROSSVILLE     CLEAR     64  59  83 CALM      30.04S
$$

TNZ061-075-076-078-094-096-097-310600-
SOUTH MIDDLE TENNESSEE

CITY           SKY/WX    TMP DP  RH WIND       PRES   REMARKS
TULLAHOMA      CLEAR     64  63  94 CALM      30.00F
WINCHESTER     CLEAR     64  61  88 CALM      29.99F
COLUMBIA       CLEAR    N/A N/A N/A S3        29.97F
SHELBYVILLE    CLEAR     64  61  88 CALM      29.99F
$$

TNZ017-018-042-046-047-310600-
NORTHEAST TENNESSEE

CITY           SKY/WX    TMP DP  RH WIND       PRES   REMARKS
TRI CITIES     CLEAR     62  60  93 CALM      30.01F
$$

TNZ012-013-036-069-073-074-310600-
CENTRAL EAST TENNESSEE

CITY           SKY/WX    TMP DP  RH WIND       PRES   REMARKS
KNOXVILLE      CLEAR     69  66  90 CALM      29.98
OAK RIDGE      CLEAR     69  64  84 CALM      30.00S
GATLINBURG     CLEAR     64  61  88 CALM      29.99S
$$

TNZ083-085-099-310600-
SOUTHEAST TENNESSEE

CITY           SKY/WX    TMP DP  RH WIND       PRES   REMARKS
CHATTANOOGA    CLEAR     69  62  78 NW3       29.97S
$$

SKY/WX REPORTED AS FAIR MEANS FEW OR NO CLOUDS BELOW
12 THOUSAND FEET.





USA.gov is the U.S. government's official web portal to all federal, state and local government web resources and services.